Louisville, KY

5:21 AM EDT on April 27, 2018 (GMT -0400)
Louisville International-Standiford

Weather History for KSDF - June, 2012

Change the Weather History Date:

Tuesday, June 5, 2012

  Actual Average Record
Temperature  
Mean Temperature 68 °F 73 °F  
Max Temperature 78 °F 83 °F 96 °F (1899)
Min Temperature 57 °F 63 °F 45 °F (1990)
Degree Days  
Heating Degree Days 0 0  
Month to date heating degree days 7 1  
Since 1 June heating degree days 7 1  
Since 1 July heating degree days 3216 4093  
Cooling Degree Days 3 8  
Month to date cooling degree days 12 38  
Year to date cooling degree days 367 212  
Since 1 June cooling degree days 12 38  
Growing Degree Days 18 (Base 50)    
Moisture  
Dew Point 53 °F    
Average Humidity 67    
Maximum Humidity 97    
Minimum Humidity 36    
Precipitation  
Precipitation 0.00 in 0.15 in 1.70 in (1895)
Month to date precipitation 0.50 0.72  
Year to date precipitation 23.82 20.59  
Snow  
Snow 0.00 in 0.00 in - ()
Month to date snowfall 0.0 0.0  
Since 1 June snowfall 0.0 0.0  
Since 1 July snowfall 7.0 12.5  
Snow Depth 0.00 in    
Sea Level Pressure  
Sea Level Pressure 29.87 in    
Wind  
Wind Speed 8 mph (NNE)    
Max Wind Speed 18 mph    
Max Gust Speed 25 mph    
Visibility 10 miles    
Events      
T = Trace of Precipitation, MM = Missing Value Source: NWS Daily Summary

Daily Weather History Graph

Daily Weather History Graph

Search for Another Location

Airport or City:

Astronomy

Jun. 05, 2012 Rise Set
Actual Time 6:20 AM EDT 9:03 PM EDT
Civil Twilight 5:49 AM EDT 9:34 PM EDT
Nautical Twilight 5:10 AM EDT 10:13 PM EDT
Astronomical Twilight 4:26 AM EDT 10:57 PM EDT
Moon 10:28 PM EDT (6/5) 7:31 AM EDT (6/5)
Length of Visible Light 15h 45m
Length of Day
14h 43m
Full, 98% of the Moon is Illuminated
Jun 5
Full
Jun 11
Last Quarter
Jun 19
New
Jun 26
First Quarter
Jul 3
Full

Hourly Weather History & Observations

Time (EDT) Temp. Dew Point Humidity Pressure Visibility Wind Dir Wind Speed Gust Speed Precip Events Conditions
12:56 AM 62.1 °F 60.1 °F 93% 29.81 in 10.0 mi Calm Calm - N/A   Scattered Clouds
1:56 AM 61.0 °F 59.0 °F 93% 29.83 in 8.0 mi West 3.5 mph - N/A   Partly Cloudy
2:56 AM 61.0 °F 59.0 °F 93% 29.82 in 6.0 mi Calm Calm - N/A   Clear
3:56 AM 60.1 °F 57.9 °F 93% 29.82 in 6.0 mi North 5.8 mph - N/A   Partly Cloudy
4:56 AM 60.1 °F 55.9 °F 86% 29.82 in 10.0 mi North 4.6 mph - N/A   Partly Cloudy
5:56 AM 57.0 °F 55.0 °F 93% 29.85 in 10.0 mi North 4.6 mph - N/A   Partly Cloudy
6:56 AM 57.9 °F 54.0 °F 87% 29.87 in 10.0 mi North 3.5 mph - N/A   Clear
7:56 AM 61.0 °F 55.0 °F 81% 29.88 in 10.0 mi North 4.6 mph - N/A   Clear
8:56 AM 64.0 °F 54.0 °F 70% 29.90 in 10.0 mi ENE 5.8 mph - N/A   Clear
9:56 AM 66.9 °F 53.1 °F 61% 29.91 in 10.0 mi ENE 5.8 mph - N/A   Clear
10:56 AM 70.0 °F 53.1 °F 55% 29.91 in 10.0 mi NNE 5.8 mph - N/A   Clear
11:56 AM 73.0 °F 51.1 °F 46% 29.91 in 10.0 mi NNE 11.5 mph - N/A   Partly Cloudy
12:56 PM 73.9 °F 50.0 °F 43% 29.91 in 10.0 mi NE 5.8 mph - N/A   Partly Cloudy
1:56 PM 75.0 °F 46.9 °F 37% 29.89 in 10.0 mi ENE 10.4 mph - N/A   Scattered Clouds
2:56 PM 75.9 °F 51.1 °F 42% 29.88 in 10.0 mi North 11.5 mph - N/A   Scattered Clouds
3:56 PM 77.0 °F 50.0 °F 39% 29.87 in 10.0 mi North 10.4 mph 19.6 mph N/A   Scattered Clouds
4:56 PM 73.9 °F 50.0 °F 43% 29.87 in 10.0 mi North 12.7 mph 20.7 mph N/A   Mostly Cloudy
5:56 PM 73.9 °F 50.0 °F 43% 29.86 in 10.0 mi North 12.7 mph 20.7 mph N/A   Mostly Cloudy
6:56 PM 73.0 °F 51.1 °F 46% 29.87 in 10.0 mi NNE 12.7 mph - N/A   Scattered Clouds
7:56 PM 72.0 °F 51.1 °F 48% 29.87 in 10.0 mi North 10.4 mph - N/A   Scattered Clouds
8:56 PM 70.0 °F 51.1 °F 51% 29.88 in 10.0 mi NNE 6.9 mph - N/A   Scattered Clouds
9:56 PM 66.9 °F 48.9 °F 52% 29.91 in 10.0 mi NE 12.7 mph 21.9 mph N/A   Scattered Clouds
10:56 PM 64.9 °F 50.0 °F 58% 29.92 in 10.0 mi NNE 9.2 mph - N/A   Partly Cloudy
11:56 PM 63.0 °F 51.1 °F 65% 29.93 in 10.0 mi Variable 4.6 mph - N/A   Clear